ONEWEB-0012

operational
NORAD ID: 44057 Int'l Des: 2019-010 Owner: ONEWEB Country: UK Constellation: oneweb
LEOCIRCULARPOLARONEWEB_TYPE

About ONEWEB-0012

Description loading...

Live Position

Loading 3D Globe...

Upcoming Passes

Altitude History

Altitude vs Time

uPlot chart will show altitude changes over time

Two-Line Element Set

1 44057U 19010A 25250.01251313 .00000131 00000-0 30907-3 0 9998
2 44057 87.8987 285.2414 0002141 83.9996 276.1379 13.16593771314306
Epoch: Sep 7, 2025 • Age: 20 hours

Current Status

Altitude 1202.2 km
Velocity 7.25 km/s
Sub-Earth Point -8.52°S, 7.21°W
Launch Date Dec 27, 2021
Age 3.6 years
Type internet

Technical Details

Classification Payload
Mass 148.00 kg
Dry Mass 140.00 kg
Total Mass 148.00 kg
Length 1.30 m
Diameter 1.00 m
Span 5.00 m
Shape Trapezoid+2 pan
Manufacturer ADST
Bus Type ARROW
Phase Status In Orbit
Owner/State ONEWEB/UK

Large Constellations

Loading constellations...